N6OIM Weather Reports


Display with metric or nautical units.
time (UTC)temp
F
wind
direction
speed
MPH
gust
MPH
rain 1hr
in
rain 24hr
in
rain mn
in
humidity
%
barometer
mb
20260904223830 80 296 0.0 0.0 0.00 0.05 0.00 38 1011.6
20260904223319 79 288 0.0 0.0 0.00 0.05 0.00 38 1011.6
20260904222832 79 298 0.0 0.0 0.00 0.05 0.00 40 1011.5
20260904222321 79 327 0.0 0.0 0.00 0.05 0.00 40 1011.6
20260904221829 79 13 0.0 0.0 0.00 0.05 0.00 40 1011.6
20260904221319 79 230 0.0 0.0 0.00 0.05 0.00 39 1011.6
20260904220830 79 229 0.0 0.0 0.00 0.05 0.00 39 1011.8
20260904220324 79 248 0.0 0.0 0.00 0.05 0.00 39 1011.7
20260904215833 79 205 0.0 0.0 0.00 0.05 0.00 40 1011.7
20260904215323 79 143 0.0 0.0 0.00 0.05 0.00 39 1011.8
20260904214831 78 227 0.0 0.0 0.00 0.05 0.00 40 1011.7
20260904214323 78 163 0.0 0.0 0.00 0.05 0.00 40 1011.7
20260904213832 78 140 0.0 0.0 0.00 0.05 0.00 40 1011.7
20260904213320 78 268 0.0 0.0 0.00 0.05 0.00 41 1011.6
20260904212828 78 263 0.0 0.0 0.00 0.05 0.00 42 1011.7
20260904212317 78 242 0.0 0.0 0.00 0.05 0.00 41 1011.8
20260904211827 78 193 0.0 0.0 0.00 0.05 0.00 42 1011.7
20260904211316 78 263 0.0 0.0 0.00 0.05 0.00 43 1011.8
20260904210826 77 261 0.0 0.0 0.00 0.05 0.00 43 1011.7
20260904210335 77 275 0.0 0.0 0.00 0.05 0.00 46 1011.7
20260904205823 77 259 0.0 0.0 0.00 0.05 0.00 44 1011.7
20260904205332 77 259 0.0 0.0 0.00 0.05 0.00 45 1011.8
20260904204820 76 259 0.0 0.0 0.00 0.05 0.00 45 1011.8
20260904204329 76 196 0.0 0.0 0.00 0.05 0.00 45 1011.8
20260904203821 76 180 0.0 0.0 0.00 0.05 0.00 44 1011.8
20260904203313 76 187 0.0 0.0 0.00 0.05 0.00 44 1011.8
20260904202825 76 190 0.0 0.0 0.00 0.05 0.00 46 1011.8
20260904202334 75 325 0.0 0.0 0.00 0.05 0.00 46 1011.8
20260904201822 75 109 0.0 0.0 0.00 0.05 0.00 47 1011.9
20260904201331 75 96 0.0 0.0 0.00 0.05 0.00 47 1012.0
20260904200821 75 98 0.0 0.0 0.00 0.05 0.00 48 1012.0
20260904200330 75 203 0.0 0.0 0.00 0.05 0.00 50 1012.0
20260904195818 74 227 0.0 0.0 0.00 0.05 0.00 50 1012.1
20260904195328 74 248 0.0 0.0 0.00 0.05 0.00 50 1012.1
20260904194823 73 170 0.0 0.0 0.00 0.05 0.00 51 1012.2
20260904194333 73 297 0.0 0.0 0.00 0.05 0.00 53 1012.2
20260904193821 73 237 0.0 0.0 0.00 0.05 0.00 51 1012.2
20260904193330 73 211 0.0 0.0 0.00 0.05 0.00 56 1012.3
20260904192819 73 209 0.0 0.0 0.00 0.05 0.00 54 1012.3
20260904192331 73 210 0.0 0.0 0.00 0.05 0.00 54 1012.5
20260904191819 73 196 0.0 0.0 0.00 0.05 0.00 55 1012.5
20260904191331 73 198 0.0 0.0 0.00 0.05 0.00 55 1012.5
20260904190823 73 209 0.0 0.0 0.00 0.05 0.00 55 1012.6
20260904190332 73 181 0.0 0.0 0.00 0.05 0.00 57 1012.6
20260904185820 72 152 0.0 0.0 0.00 0.05 0.00 57 1012.7
20260904185330 72 152 0.0 0.0 0.00 0.05 0.00 58 1012.8
20260904184822 72 149 0.0 0.0 0.00 0.05 0.00 59 1012.7
20260904184331 71 117 0.0 0.0 0.00 0.05 0.00 60 1012.7
20260904183820 71 116 0.0 0.0 0.00 0.05 0.00 59 1012.7
20260904183330 71 140 0.0 0.0 0.00 0.05 0.00 61 1012.7
20260904182819 70 140 0.0 0.0 0.00 0.05 0.00 61 1012.7
20260904182333 70 122 0.0 0.0 0.00 0.05 0.00 62 1012.7
20260904181823 70 119 0.0 0.0 0.00 0.05 0.00 63 1012.6
20260904181332 69 163 0.0 0.0 0.00 0.05 0.00 64 1012.7
20260904180820 69 155 0.0 0.0 0.00 0.05 0.00 64 1012.7
20260904180330 69 118 0.0 0.0 0.00 0.05 0.00 65 1012.7
20260904175819 68 140 0.0 0.0 0.00 0.05 0.00 67 1012.8
20260904175334 68 107 0.0 0.0 0.00 0.05 0.00 69 1012.8
20260904174821 68 168 0.0 0.0 0.00 0.05 0.00 69 1012.8
20260904174332 67 168 0.0 0.0 0.00 0.05 0.00 69 1012.8
20260904173825 67 142 0.0 0.0 0.00 0.05 0.00 70 1012.8
20260904173334 67 182 0.0 0.0 0.00 0.05 0.00 70 1012.7
20260904172822 67 173 0.0 0.0 0.00 0.05 0.00 71 1012.7
20260904172331 67 221 0.0 0.0 0.00 0.05 0.00 74 1012.7
20260904171820 66 140 0.0 0.0 0.00 0.05 0.00 75 1012.6
20260904171331 66 234 0.0 0.0 0.00 0.05 0.00 76 1012.6
20260904170820 65 117 0.0 0.0 0.00 0.05 0.00 79 1012.5
20260904170329 65 150 0.0 0.0 0.00 0.05 0.00 81 1012.4
20260904165825 64 137 0.0 0.0 0.00 0.05 0.00 83 1012.5
20260904165318 64 150 0.0 0.0 0.00 0.05 0.00 84 1012.4
20260904164826 63 145 0.0 0.0 0.00 0.05 0.00 85 1012.4
20260904164334 63 173 0.0 0.0 0.00 0.05 0.00 87 1012.5
20260904163822 63 169 0.0 0.0 0.00 0.05 0.00 88 1012.4
20260904163332 62 150 0.0 0.0 0.00 0.05 0.00 89 1012.4
20260904162821 62 126 0.0 0.0 0.00 0.05 0.00 89 1012.3
20260904162331 62 153 0.0 0.0 0.00 0.05 0.00 89 1012.3
20260904161820 62 123 0.0 0.0 0.00 0.05 0.00 89 1012.2
20260904161334 62 146 0.0 0.0 0.00 0.05 0.00 89 1012.1
20260904160823 61 147 0.0 0.0 0.00 0.05 0.00 89 1012.1
20260904160333 61 188 0.0 0.0 0.00 0.05 0.00 89 1012.1
20260904155821 61 188 0.0 0.0 0.00 0.05 0.00 89 1012.1
20260904155331 60 192 0.0 0.0 0.00 0.05 0.00 89 1012.1
20260904154819 60 193 0.0 0.0 0.00 0.05 0.00 89 1012.1
20260904154332 60 196 0.0 0.0 0.00 0.05 0.00 89 1012.1
20260904153822 60 196 0.0 0.0 0.00 0.05 0.00 88 1012.1
20260904153332 60 196 0.0 0.0 0.00 0.05 0.00 88 1012.1
20260904152825 60 196 0.0 0.0 0.00 0.05 0.00 88 1012.0
20260904152334 60 196 0.0 0.0 0.00 0.05 0.00 88 1012.1
20260904151822 60 196 0.0 0.0 0.00 0.05 0.00 89 1012.1
20260904151332 60 196 0.0 0.0 0.00 0.05 0.00 89 1012.0
20260904150823 61 196 0.0 0.0 0.00 0.05 0.05 88 1012.0
20260904150336 61 196 0.0 0.0 0.00 0.05 0.05 89 1012.0
20260904145824 61 198 0.0 0.0 0.00 0.05 0.05 89 1012.0
20260904145333 61 198 0.0 0.0 0.00 0.05 0.05 89 1012.0
20260904144825 61 198 0.0 0.0 0.00 0.05 0.05 89 1012.0
20260904144334 61 198 0.0 0.0 0.00 0.05 0.05 89 1011.9
20260904143823 61 198 0.0 0.0 0.00 0.05 0.05 88 1011.8
20260904143333 61 198 0.0 0.0 0.00 0.05 0.05 88 1011.7
20260904142824 61 198 0.0 0.0 0.00 0.05 0.05 88 1011.7
20260904142334 61 198 0.0 0.0 0.00 0.05 0.05 88 1011.6
20260904141823 61 198 0.0 0.0 0.00 0.05 0.05 88 1011.4
20260904141333 61 198 0.0 0.0 0.00 0.05 0.05 88 1011.4
20260904140822 61 198 0.0 0.0 0.00 0.05 0.05 88 1011.2
20260904140336 61 198 0.0 0.0 0.00 0.05 0.05 88 1011.2
20260904135824 61 198 0.0 0.0 0.00 0.05 0.05 88 1011.1
20260904135336 61 157 0.0 0.0 0.00 0.05 0.05 88 1011.0
20260904134825 61 157 0.0 0.0 0.00 0.05 0.05 88 1011.0
20260904134334 61 157 0.0 0.0 0.00 0.05 0.05 88 1010.9
20260904133822 61 157 0.0 0.0 0.00 0.05 0.05 88 1010.9
20260904133334 61 157 0.0 0.0 0.00 0.05 0.05 88 1010.8
20260904132821 61 157 0.0 0.0 0.01 0.05 0.05 88 1010.8
20260904132330 61 157 0.0 0.0 0.01 0.05 0.05 88 1010.8
20260904131822 62 156 0.0 0.0 0.01 0.05 0.05 88 1010.8
20260904131330 62 156 0.0 0.0 0.02 0.05 0.05 88 1010.7
20260904130818 62 156 0.0 0.0 0.02 0.05 0.05 88 1010.6
20260904130330 62 156 0.0 0.0 0.02 0.05 0.05 88 1010.6
20260904125818 62 156 0.0 0.0 0.02 0.05 0.05 88 1010.6
20260904125328 62 156 0.0 0.0 0.02 0.05 0.05 88 1010.6
20260904124817 62 157 0.0 0.0 0.02 0.05 0.05 88 1010.5
20260904124327 62 156 0.0 0.0 0.02 0.05 0.05 88 1010.5
20260904123820 62 157 0.0 0.0 0.02 0.05 0.05 88 1010.5
20260904123330 62 156 0.0 0.0 0.02 0.05 0.05 88 1010.5
20260904122820 62 157 0.0 0.0 0.01 0.04 0.04 88 1010.4
20260904122329 62 157 0.0 0.0 0.01 0.04 0.04 88 1010.5
20260904121817 62 156 0.0 0.0 0.01 0.04 0.04 88 1010.4
20260904121326 62 148 0.0 0.0 0.01 0.04 0.04 88 1010.4
20260904120834 62 148 0.0 0.0 0.00 0.03 0.03 88 1010.3
20260904120322 62 148 0.0 0.0 0.00 0.03 0.03 88 1010.3
20260904115830 62 129 0.0 0.0 0.00 0.03 0.03 88 1010.3
20260904115324 62 175 0.0 0.0 0.00 0.03 0.03 88 1010.4
20260904114813 62 175 0.0 0.0 0.00 0.03 0.03 88 1010.3
20260904114327 62 175 0.0 0.0 0.00 0.03 0.03 88 1010.3
20260904113836 62 175 0.0 0.0 0.00 0.03 0.03 87 1010.3
20260904113325 62 175 0.0 0.0 0.00 0.03 0.03 87 1010.2
20260904112835 62 175 0.0 0.0 0.00 0.03 0.03 87 1010.2
20260904112324 62 175 0.0 0.0 0.00 0.03 0.03 87 1010.2
20260904111832 62 175 0.0 0.0 0.00 0.03 0.03 87 1010.2
20260904111321 62 175 0.0 0.0 0.00 0.03 0.03 87 1010.3
20260904110835 62 175 0.0 0.0 0.00 0.03 0.03 87 1010.2
20260904110324 62 175 0.0 0.0 0.00 0.03 0.03 87 1010.2
20260904105832 63 175 0.0 0.0 0.00 0.03 0.03 87 1010.2
20260904105322 63 175 0.0 0.0 0.00 0.03 0.03 87 1010.1
20260904104831 63 175 0.0 0.0 0.00 0.03 0.03 87 1010.1
20260904104323 63 175 0.0 0.0 0.00 0.03 0.03 87 1010.1
20260904103832 63 176 0.0 0.0 0.01 0.03 0.03 87 1010.0
20260904103321 63 176 0.0 0.0 0.01 0.03 0.03 86 1010.0
20260904102829 63 176 0.0 0.0 0.01 0.03 0.03 86 1010.0
20260904102322 63 176 0.0 0.0 0.01 0.03 0.03 86 1010.0
20260904101832 63 176 0.0 0.0 0.01 0.03 0.03 86 1009.9
20260904101321 63 176 0.0 0.0 0.01 0.03 0.03 86 1009.9
20260904100829 63 176 0.0 0.0 0.01 0.03 0.03 86 1009.9
20260904100318 63 176 0.0 0.0 0.01 0.03 0.03 86 1009.9
20260904095828 63 176 0.0 0.0 0.01 0.03 0.03 86 1010.0
20260904095318 63 176 0.0 0.0 0.01 0.03 0.03 86 1009.9
20260904094826 63 176 0.0 0.0 0.01 0.03 0.03 85 1009.8
20260904094320 63 176 0.0 0.0 0.01 0.03 0.03 85 1009.8
20260904093829 64 176 0.0 0.0 0.00 0.02 0.02 85 1009.8
20260904093318 64 176 0.0 0.0 0.00 0.02 0.02 85 1009.8
20260904092826 64 175 0.0 0.0 0.00 0.02 0.02 85 1009.8
20260904092319 64 172 0.0 0.0 0.00 0.02 0.02 85 1009.7
20260904091831 64 173 0.0 0.0 0.00 0.02 0.02 84 1009.8
20260904091320 64 172 0.0 0.0 0.01 0.02 0.02 84 1009.8
20260904090828 64 173 0.0 0.0 0.01 0.02 0.02 84 1009.7
20260904090317 64 173 0.0 0.0 0.01 0.02 0.02 84 1009.7
20260904085833 64 172 0.0 0.0 0.01 0.02 0.02 84 1009.7
20260904085325 64 173 0.0 0.0 0.01 0.02 0.02 83 1009.7
20260904084834 64 172 0.0 0.0 0.01 0.02 0.02 83 1009.8
20260904084324 65 172 0.0 0.0 0.02 0.02 0.02 82 1009.8
20260904083832 65 173 0.0 0.0 0.02 0.02 0.02 82 1009.8
20260904083321 65 173 0.0 0.0 0.02 0.02 0.02 81 1009.9
20260904082832 65 172 0.0 0.0 0.02 0.02 0.02 81 1009.8
20260904082322 65 173 0.0 0.0 0.02 0.02 0.02 81 1009.8
20260904081828 65 172 0.0 0.0 0.02 0.02 0.02 80 1009.8
20260904081320 65 172 0.0 0.0 0.01 0.01 0.01 80 1009.8
20260904080828 66 209 0.0 0.0 0.01 0.01 0.01 80 1009.8
20260904080318 66 211 0.0 0.0 0.01 0.01 0.01 79 1009.8
20260904075827 66 211 0.0 0.0 0.01 0.01 0.01 78 1009.8
20260904075319 66 240 0.0 0.0 0.01 0.01 0.01 78 1009.9
20260904074827 66 240 0.0 0.0 0.01 0.01 0.01 78 1009.9
20260904074315 66 240 0.0 0.0 0.00 0.00 0.00 77 1010.0
20260904073826 66 240 0.0 0.0 0.00 0.00 0.00 76 1009.9
20260904073319 66 240 0.0 0.0 0.00 0.00 0.00 76 1009.9
20260904072828 67 240 0.0 0.0 0.00 0.00 0.00 75 1010.0
20260904072318 67 240 0.0 0.0 0.00 0.00 0.00 75 1009.9
20260904071827 67 243 0.0 0.0 0.00 0.00 0.00 76 1010.0
20260904071334 67 242 0.0 0.0 0.00 0.00 0.00 76 1009.9
20260904070823 67 242 0.0 0.0 0.00 0.00 0.00 76 1010.0
20260904070333 67 245 0.0 0.0 0.00 0.00 0.00 76 1009.9
20260904065821 67 245 0.0 0.0 0.00 0.00 0.00 76 1010.0
20260904065330 67 245 0.0 0.0 0.00 0.00 0.00 76 1009.9
20260904064825 67 245 0.0 0.0 0.00 0.00 0.00 76 1009.9
20260904064317 67 245 0.0 0.0 0.00 0.00 0.00 76 1009.9
20260904063825 67 245 0.0 0.0 0.00 0.00 0.00 77 1009.9
20260904063318 67 245 0.0 0.0 0.00 0.00 0.00 77 1009.8
20260904062825 67 245 0.0 0.0 0.00 0.00 0.00 77 1009.8
20260904062335 67 245 0.0 0.0 0.00 0.00 0.00 77 1009.8
20260904061824 67 246 0.0 0.0 0.00 0.00 0.00 77 1009.8
20260904061333 67 246 0.0 0.0 0.00 0.00 0.00 78 1009.8
20260904060822 67 246 0.0 0.0 0.00 0.00 0.00 78 1009.8
20260904060336 67 246 0.0 0.0 0.00 0.00 0.00 78 1009.8
20260904055824 67 246 0.0 0.0 0.00 0.00 0.00 78 1009.8
20260904055317 67 246 0.0 0.0 0.00 0.00 0.00 78 1009.9
20260904054826 67 246 0.0 0.0 0.00 0.00 0.00 78 1009.8
20260904054315 68 246 0.0 0.0 0.00 0.00 0.00 77 1009.9
20260904053826 68 246 0.0 0.0 0.00 0.00 0.00 77 1009.9
20260904053315 68 246 0.0 0.0 0.00 0.00 0.00 77 1009.9
20260904052825 68 246 0.0 0.0 0.00 0.00 0.00 77 1010.0
20260904052319 68 246 0.0 0.0 0.00 0.00 0.00 77 1010.1
20260904051828 68 246 0.0 0.0 0.00 0.00 0.00 77 1010.0
20260904051317 68 246 0.0 0.0 0.00 0.00 0.00 76 1010.1
20260904050826 68 246 0.0 0.0 0.00 0.00 0.00 75 1010.1
20260904050336 68 246 0.0 0.0 0.00 0.00 0.00 75 1010.0
20260904045824 68 246 0.0 0.0 0.00 0.00 0.00 75 1010.1
20260904045334 68 246 0.0 0.0 0.00 0.00 0.00 74 1010.0
20260904044823 68 246 0.0 0.0 0.00 0.00 0.00 73 1010.0
20260904044332 68 246 0.0 0.0 0.00 0.00 0.00 72 1010.0
20260904043827 68 246 0.0 0.0 0.00 0.00 0.00 72 1009.9
20260904043319 69 246 0.0 0.0 0.00 0.00 0.00 72 1009.9
20260904042827 69 246 0.0 0.0 0.00 0.00 0.00 72 1009.9
20260904042336 69 246 0.0 0.0 0.00 0.00 0.00 72 1010.0
20260904041824 69 246 0.0 0.0 0.00 0.00 0.00 70 1010.0
20260904041333 69 246 0.0 0.0 0.00 0.00 0.00 69 1010.0
20260904040821 69 246 0.0 0.0 0.00 0.00 0.00 69 1010.0
20260904040331 69 246 0.0 0.0 0.00 0.00 0.00 69 1010.0
20260904035818 69 246 0.0 0.0 0.00 0.00 0.00 69 1010.0
20260904035332 69 246 0.0 0.0 0.00 0.00 0.00 69 1010.0
20260904034823 69 246 0.0 0.0 0.00 0.00 0.00 69 1010.0
20260904034333 70 246 0.0 0.0 0.00 0.00 0.00 69 1009.9
20260904033822 70 246 0.0 0.0 0.00 0.00 0.00 70 1009.7
20260904033333 70 246 0.0 0.0 0.00 0.00 0.00 70 1009.7
20260904032822 70 246 0.0 0.0 0.00 0.00 0.00 70 1009.6
20260904032331 70 246 0.0 0.0 0.00 0.00 0.00 70 1009.6
20260904031821 70 245 0.0 0.0 0.00 0.00 0.00 70 1009.6
20260904031330 70 245 0.0 0.0 0.00 0.00 0.00 70 1009.6
20260904030821 70 246 0.0 0.0 0.00 0.00 0.00 69 1009.6
20260904030329 70 245 0.0 0.0 0.00 0.00 0.00 69 1009.6
20260904025817 70 246 0.0 0.0 0.00 0.00 0.00 69 1009.6
20260904025326 70 246 0.0 0.0 0.00 0.00 0.00 69 1009.6
20260904024835 70 245 0.0 0.0 0.00 0.00 0.00 69 1009.6
20260904024324 70 246 0.0 0.0 0.00 0.00 0.00 69 1009.7
20260904023832 70 245 0.0 0.0 0.00 0.00 0.00 69 1009.7
20260904023321 70 237 0.0 0.0 0.00 0.00 0.00 68 1009.8
20260904022814 70 237 0.0 0.0 0.00 0.00 0.00 68 1009.8
20260904022327 70 237 0.0 0.0 0.00 0.00 0.00 68 1009.7
20260904021819 71 238 0.0 0.0 0.00 0.00 0.00 68 1009.8
20260904021328 71 238 0.0 0.0 0.00 0.00 0.00 68 1009.8
20260904020820 71 238 0.0 0.0 0.00 0.00 0.00 67 1009.8
20260904020330 71 237 0.0 0.0 0.00 0.00 0.00 67 1009.8
20260904015818 71 237 0.0 0.0 0.00 0.00 0.00 67 1009.8
20260904015327 71 238 0.0 0.0 0.00 0.00 0.00 67 1009.9
20260904014835 71 238 0.0 0.0 0.00 0.00 0.00 67 1009.9
20260904014329 71 237 0.0 0.0 0.00 0.00 0.00 66 1009.9
20260904013820 71 244 0.0 0.0 0.00 0.00 0.00 66 1009.9
20260904013330 72 243 0.0 0.0 0.00 0.00 0.00 65 1009.9
20260904012819 72 241 0.0 0.0 0.00 0.00 0.00 65 1009.9
20260904012332 72 238 0.0 0.0 0.00 0.00 0.00 64 1010.0
20260904011821 72 246 0.0 0.0 0.00 0.00 0.00 64 1009.9
20260904011330 72 260 0.0 0.0 0.00 0.00 0.00 64 1010.1
20260904010821 73 317 0.0 0.0 0.00 0.00 0.00 64 1010.1
20260904010314 73 318 0.0 0.0 0.00 0.00 0.00 63 1010.1
20260904005825 73 264 0.0 0.0 0.00 0.00 0.00 63 1010.1
20260904005317 73 259 0.0 0.0 0.00 0.00 0.00 63 1010.1
20260904004826 73 246 0.0 0.0 0.00 0.00 0.00 62 1010.1
20260904004335 73 246 0.0 0.0 0.00 0.00 0.00 62 1010.1
20260904003823 73 188 0.0 0.0 0.00 0.00 0.00 62 1010.1
20260904003332 73 180 0.0 0.0 0.00 0.00 0.00 62 1010.1
20260904002820 74 213 0.0 0.0 0.00 0.00 0.00 61 1010.1
20260904002330 74 232 0.0 0.0 0.00 0.00 0.00 61 1010.1
20260904001823 74 279 0.0 0.0 0.00 0.00 0.00 60 1010.0
20260904001332 74 262 0.0 0.0 0.00 0.00 0.00 60 1010.1
20260904000821 74 245 0.0 0.0 0.00 0.00 0.00 60 1010.1
20260904000332 75 252 0.0 0.0 0.00 0.00 0.00 60 1010.1
20260903235821 75 267 0.0 0.0 0.00 0.00 0.00 60 1010.1
20260903235330 75 214 0.0 0.0 0.00 0.00 0.00 60 1010.1
20260903234818 75 262 0.0 0.0 0.00 0.00 0.00 60 1010.1
20260903234328 75 244 0.0 0.0 0.00 0.00 0.00 60 1010.1
20260903233821 75 217 0.0 0.0 0.00 0.00 0.00 60 1010.1
20260903233335 75 241 0.0 0.0 0.00 0.00 0.00 60 1010.1
20260903232823 75 195 0.0 0.0 0.00 0.00 0.00 59 1010.1
20260903232333 75 248 0.0 0.0 0.00 0.00 0.00 59 1010.1
20260903231825 75 248 0.0 0.0 0.00 0.00 0.00 59 1010.3
20260903231335 75 270 0.0 0.0 0.00 0.00 0.00 58 1010.3
20260903230824 75 276 0.0 0.0 0.00 0.00 0.00 59 1010.3
20260903230333 75 265 0.0 0.0 0.00 0.00 0.00 58 1010.3
20260903225821 76 259 0.0 0.0 0.00 0.00 0.00 58 1010.4
20260903225330 76 266 0.0 0.0 0.00 0.00 0.00 57 1010.4
20260903224822 76 230 0.0 0.0 0.00 0.00 0.00 56 1010.4
20260903224332 76 244 0.0 0.0 0.00 0.00 0.00 57 1010.3